TimeCST,TemperatureF,Dew PointF,Humidity,Sea Level PressureIn,VisibilityMPH,Wind Direction,Wind SpeedMPH,Gust SpeedMPH,PrecipitationIn,Events,Conditions,WindDirDegrees,DateUTC
5:10 AM,68.0,57.2,68,29.90,7.0,Calm,Calm,-,N/A,,Overcast,0,2013-02-27 11:10:00
5:49 AM,68.0,57.2,68,29.88,7.0,Calm,Calm,-,N/A,,Overcast,0,2013-02-27 11:49:00
6:43 AM,68.0,57.2,68,29.92,7.0,Calm,Calm,-,N/A,,Overcast,0,2013-02-27 12:43:00
7:47 AM,69.8,59.0,68,29.94,7.0,Calm,Calm,-,N/A,,Overcast,0,2013-02-27 13:47:00
8:47 AM,73.4,57.2,57,29.92,7.0,Calm,Calm,-,N/A,,Overcast,0,2013-02-27 14:47:00
9:43 AM,75.2,57.2,53,29.97,7.0,NNE,3.5,-,N/A,,Scattered Clouds,20,2013-02-27 15:43:00
10:44 AM,78.8,59.0,51,29.97,7.0,East,5.8,-,N/A,,Mostly Cloudy,90,2013-02-27 16:44:00
11:46 AM,78.8,57.2,47,29.93,6.0,SSE,3.5,-,N/A,,Mostly Cloudy,150,2013-02-27 17:46:00
12:45 PM,78.8,59.0,51,29.92,6.0,South,4.6,-,N/A,,Overcast,190,2013-02-27 18:45:00
1:44 PM,78.8,60.8,54,29.88,6.0,ESE,10.4,-,N/A,,Mostly Cloudy,110,2013-02-27 19:44:00
2:46 PM,78.8,60.8,54,29.85,7.0,ESE,12.7,-,N/A,,Scattered Clouds,120,2013-02-27 20:46:00
3:42 PM,78.8,60.8,54,29.86,7.0,East,11.5,-,N/A,,Partly Cloudy,90,2013-02-27 21:42:00
4:47 PM,77.0,60.8,57,29.88,7.0,East,10.4,-,N/A,,Clear,100,2013-02-27 22:47:00
5:46 PM,75.2,62.6,65,29.90,7.0,East,9.2,-,N/A,,Clear,100,2013-02-27 23:46:00
6:43 PM,73.4,62.6,69,29.94,7.0,East,9.2,-,N/A,,Clear,100,2013-02-28 00:43:00
7:45 PM,73.4,64.4,73,29.99,7.0,ENE,11.5,-,N/A,,Mostly Cloudy,60,2013-02-28 01:45:00
8:47 PM,75.2,64.4,69,30.02,7.0,NE,11.5,-,N/A,,Overcast,40,2013-02-28 02:47:00
9:45 PM,75.2,66.2,73,30.05,7.0,North,10.4,-,N/A,,Overcast,360,2013-02-28 03:45:00
10:41 PM,73.4,66.2,78,30.06,6.0,NE,5.8,-,N/A,Rain,Light Rain,40,2013-02-28 04:41:00
11:41 PM,73.4,66.2,78,30.02,7.0,WNW,3.5,-,N/A,,Overcast,300,2013-02-28 05:41:00